Weather History for KEED - January, 2014

Change the Weather History Date:

Friday, January 24, 2014

  Actual Average Record
Temperature  
Mean Temperature 62 °F -  
Max Temperature 68 °F 66 °F 78 °F (2000)
Min Temperature 57 °F 42 °F 31 °F (1966)
Degree Days  
Heating Degree Days 2    
Growing Degree Days 12 (Base 50)    
Moisture  
Dew Point 19 °F    
Average Humidity 18    
Maximum Humidity 24    
Minimum Humidity 14    
Precipitation  
Precipitation 0.00 in - - ()
Sea Level Pressure  
Sea Level Pressure 30.24 in    
Wind  
Wind Speed 12 mph (North)    
Max Wind Speed 20 mph    
Max Gust Speed 25 mph    
Visibility 10 miles    
Events      
Averages and records for this station are not official NWS values.
T = Trace of Precipitation, MM = Missing Value Source: NWS Daily Summary

Daily Weather History Graph

Daily Weather History Graph

Search for Another Location

Airport or City:

Trip Planner

Search our weather history database for the weather conditions in past years. The results will help you decide how hot, cold, wet, or windy it might be!

Date:

Astronomy

Jan. 24, 2014 Rise Set
Actual Time 6:41 AM PST 4:59 PM PST
Civil Twilight 6:14 AM PST 5:26 PM PST
Nautical Twilight 5:44 AM PST 5:57 PM PST
Astronomical Twilight 5:14 AM PST 6:27 PM PST
Moon 12:16 AM PST (1/24) 11:18 AM PST (1/24)
Length of Visible Light 11h 11m
Length of Day
10h 17m
Last Quarter, 43% of the Moon is Illuminated
Jan 24
Last Quarter
Jan 30
New
Feb 6
First Quarter
Feb 14
Full
Feb 22
Last Quarter

Hourly Weather History & Observations

Time (PST) Temp. Dew Point Humidity Pressure Visibility Wind Dir Wind Speed Gust Speed Precip Events Conditions
12:56 AM 61.0 °F 21.0 °F 21% 30.18 in 10.0 mi North 10.4 mph - N/A   Clear
1:56 AM 60.1 °F 21.0 °F 22% 30.20 in 10.0 mi North 10.4 mph - N/A   Clear
2:56 AM 60.1 °F 21.9 °F 23% 30.20 in 10.0 mi North 10.4 mph - N/A   Clear
3:56 AM 59.0 °F 21.0 °F 23% 30.21 in 10.0 mi North 11.5 mph - N/A   Clear
4:56 AM 59.0 °F 21.0 °F 23% 30.22 in 10.0 mi North 12.7 mph - N/A   Clear
5:56 AM 57.9 °F 21.0 °F 24% 30.25 in 10.0 mi North 12.7 mph - N/A   Clear
6:56 AM 57.9 °F 19.9 °F 23% 30.27 in 10.0 mi North 12.7 mph - N/A   Clear
7:56 AM 59.0 °F 19.9 °F 22% 30.29 in 10.0 mi North 12.7 mph - N/A   Clear
8:56 AM 61.0 °F 19.9 °F 21% 30.30 in 10.0 mi North 10.4 mph - N/A   Clear
9:56 AM 63.0 °F 19.0 °F 18% 30.32 in 10.0 mi North 15.0 mph - N/A   Clear
10:56 AM 64.9 °F 19.0 °F 17% 30.31 in 10.0 mi NNE 17.3 mph - N/A   Clear
11:56 AM 66.0 °F 18.0 °F 16% 30.27 in 10.0 mi NNE 18.4 mph - N/A   Clear
12:56 PM 68.0 °F 17.1 °F 14% 30.24 in 10.0 mi NNE 19.6 mph 25.3 mph N/A   Clear
1:56 PM 68.0 °F 17.1 °F 14% 30.22 in 10.0 mi NNE 17.3 mph - N/A   Clear
2:56 PM 68.0 °F 17.1 °F 14% 30.22 in 10.0 mi NNE 18.4 mph - N/A   Clear
3:56 PM 66.9 °F 18.0 °F 15% 30.22 in 10.0 mi North 13.8 mph - N/A   Clear
4:56 PM 64.9 °F 18.0 °F 16% 30.22 in 10.0 mi North 12.7 mph - N/A   Clear
5:56 PM 64.0 °F 18.0 °F 17% 30.23 in 10.0 mi NNW 5.8 mph - N/A   Clear
6:56 PM 64.0 °F 17.1 °F 16% 30.23 in 10.0 mi North 10.4 mph - N/A   Clear
7:56 PM 62.1 °F 17.1 °F 18% 30.23 in 10.0 mi NNW 5.8 mph - N/A   Clear
8:56 PM 63.0 °F 16.0 °F 16% 30.23 in 10.0 mi NNW 5.8 mph - N/A   Clear
9:56 PM 64.0 °F 16.0 °F 16% 30.23 in 10.0 mi North 10.4 mph - N/A   Clear
10:56 PM 63.0 °F 16.0 °F 16% 30.23 in 10.0 mi NNW 5.8 mph - N/A   Clear
11:56 PM 63.0 °F 15.1 °F 16% 30.21 in 10.0 mi North 10.4 mph - N/A   Clear